Temp
43 37 30 33 35 38 37 34 34 38 39 39 35 38 43 46 40 40 41 42 43 44 46 45 44 43 41 41 42 42 40 39 38 35 34 34 33 34 35 37 38 38 37 37
38 32 38 41 40 38 37 34 33 37 39 35 34 37 40 41 39 38 40 41 43 42 42 42 42 41 40 41 41 40 40 39 38 36 35 34 33 33 34 35 36 36 36 35
38 38 42 40 36 37 33 33 31 32 34 33 32 36 40 41 41 41 41 39 42 42 41 41 41 39 38 38 37 39 38 38 37 37 35 35 34 33 32 33 33 34 34 34
37 40 39 36 35 35 34 34 33 33 28 24 31 29 37 38 39 40 41 38 37 39 41 41 40 38 37 37 37 37 38 37 37 35 32 30 28 27 30 30 31 31 32 31
35 36 36 37 35 35 35 34 33 31 24 24 28 22 37 37 39 38 35 36 36 37 39 38 39 39 37 36 34 34 34 34 33 33 31 28 27 27 29 29 28 29 29 29
34 37 35 34 36 36 37 32 31 27 23 22 18 22 34 38 39 37 36 35 36 36 36 36 36 36 33 32 31 31 32 32 32 30 29 27 26 26 26 26 25 25 26 26
35 34 34 35 35 36 34 29 22 25 22 27 10 21 37 39 39 40 38 35 32 33 33 32 32 31 30 29 30 32 30 29 29 28 27 28 27 26 25 24 23 23 23 22
24 30 32 35 33 31 31 27 24 19 19 24 13 22 38 37 37 36 37 35 33 31 32 30 30 29 28 29 29 30 28 27 27 27 27 27 27 26 24 23 22 22 21 20
27 33 32 34 34 32 32 25 30 16 4 13 24 31 39 34 32 35 34 33 33 31 30 29 29 28 28 27 27 27 27 27 27 26 25 25 25 24 22 22 22 20 20 21
30 26 29 32 33 32 31 32 25 21 18 16 22 19 31 31 30 30 33 32 33 29 28 27 27 27 26 26 26 26 26 25 25 25 24 24 23 22 21 21 19 18 18 18
32 25 32 31 26 27 26 24 24 25 25 17 13 26 32 34 29 30 29 33 28 23 26 26 26 26 26 25 25 25 24 25 24 23 23 22 21 20 20 19 18 17 17 16
34 31 22 33 31 33 31 30 32 24 22 18 19 26 30 25 19 24 29 30 26 20 23 23 25 25 25 24 24 23 23 23 23 21 21 20 20 19 17 16 16 16 14 15
34 25 23 33 31 31 27 32 29 22 26 20 17 30 23 18 19 24 25 26 24 19 14 21 24 25 25 23 22 21 21 21 21 20 19 18 17 16 15 14 15 14 13 12
38 31 27 29 33 27 26 29 29 25 13 21 25 36 43 40 26 29 26 26 23 20 19 21 22 23 23 22 18 19 20 20 20 19 17 16 15 15 14 14 13 12 12 11
32 21 24 26 28 23 30 29 25 23 26 24 38 29 39 42 36 37 33 26 21 19 21 21 22 21 19 17 16 16 15 17 16 14 13 12 13 13 12 11 11 10 10 10
30 21 17 20 28 28 25 31 27 27 29 23 30 30 40 40 37 29 31 27 24 24 22 22 21 19 19 16 16 17 14 11 9 8 8 6 8 8 7 8 8 8 8 8
24 17 14 20 19 22 28 35 28 24 24 28 27 38 26 26 31 33 33 29 28 24 23 20 20 19 18 14 11 11 8 3 1 4 3 3 2 3 4 4 5 4 5 6
16 15 11 17 18 18 39 37 35 33 38 31 36 38 41 37 34 33 32 31 26 23 20 20 19 18 15 10 9 8 2 -2 -2 0 -1 -0 -0 -0 2 2 2 2 3 3
27 19 16 17 9 29 41 34 33 32 36 41 37 38 39 31 32 32 28 27 24 22 21 21 20 17 13 11 8 2 3 -4 2 1 -0 -1 -3 0 1 0 0 2 3 4
27 27 26 12 22 29 39 30 32 33 33 40 38 42 37 32 31 38 24 24 23 23 25 23 23 22 19 18 17 14 5 1 6 7 5 5 3 1 0 1 2 5 5 5
22 23 21 24 23 27 38 34 34 31 43 37 38 38 32 33 36 26 24 23 23 25 24 23 21 18 17 17 15 12 11 7 9 9 7 5 4 2 2 4 5 3 4 5
28 22 19 22 21 23 34 32 37 50 40 38 36 35 33 33 25 23 22 21 21 22 22 20 17 16 15 15 12 10 8 9 8 6 4 3 3 4 6 4 4 4 5 4
33 39 33 33 31 42 38 47 47 40 40 37 36 35 35 31 24 22 21 20 21 22 21 18 15 13 12 11 11 6 7 7 4 2 0 1 3 5 5 3 3 4 4 4
34 39 35 36 47 48 52 50 47 45 42 38 36 36 33 32 24 21 20 19 20 19 16 13 10 8 7 7 8 3 4 3 -2 -2 -0 2 2 1 2 4 5 3 4 4
40 36 38 40 46 49 48 50 51 47 36 34 32 33 33 27 23 21 20 18 19 16 13 10 7 6 3 3 2 -2 2 -1 -2 -0 0 1 1 0 1 4 4 5 7 9
38 44 38 42 53 52 50 39 39 36 34 34 30 27 27 26 22 21 19 20 17 14 12 10 9 6 4 2 0 1 1 -0 -3 -2 -0 -0 -0 -0 1 2 2 9 12 14
MSLP
1020.83 1021.89 1023.58 1023.76 1023.73 1023.43 1023.19 1023.27 1023.30 1022.46 1022.35 1022.02 1020.87 1019.78 1017.89 1017.37 1017.42 1017.69 1017.91 1018.04 1018.21 1018.51 1018.68 1019.43 1020.12 1020.47 1020.99 1021.25 1021.38 1021.38 1021.62 1021.96 1022.10 1022.38 1022.46 1022.36 1022.49 1022.21 1022.15 1021.63 1021.49 1021.24 1020.93 1020.60
1022.21 1023.54 1024.05 1024.11 1024.03 1023.73 1023.86 1023.95 1023.85 1022.88 1023.01 1023.59 1021.85 1019.73 1017.94 1017.33 1017.32 1017.56 1017.78 1017.74 1017.78 1018.40 1019.16 1019.73 1020.26 1020.49 1020.71 1021.10 1021.21 1021.60 1021.84 1022.11 1022.25 1022.38 1022.54 1022.54 1022.54 1022.29 1022.02 1021.80 1021.49 1021.25 1020.93 1020.52
1023.47 1024.22 1024.19 1024.34 1024.59 1024.27 1024.39 1024.52 1024.90 1025.51 1024.51 1023.99 1023.16 1020.21 1018.01 1017.11 1017.12 1017.43 1017.79 1018.18 1018.48 1018.73 1019.26 1019.72 1020.14 1020.45 1020.92 1021.35 1021.75 1022.14 1022.39 1022.51 1022.67 1022.79 1022.61 1022.56 1022.45 1022.25 1022.08 1022.01 1021.81 1021.44 1021.05 1020.68
1024.47 1024.55 1024.47 1024.53 1024.94 1025.14 1025.10 1025.26 1025.73 1026.15 1026.29 1025.81 1024.57 1022.07 1018.63 1017.46 1017.41 1017.86 1018.50 1018.93 1019.08 1019.08 1019.36 1019.78 1020.22 1020.76 1021.30 1021.83 1022.32 1022.55 1022.72 1022.92 1023.06 1023.12 1023.06 1023.11 1023.19 1023.03 1022.82 1022.52 1022.12 1021.65 1021.23 1020.93
1025.20 1025.20 1025.23 1025.37 1025.62 1025.65 1025.83 1025.87 1026.21 1026.60 1027.14 1027.17 1025.67 1024.44 1018.79 1017.88 1017.71 1018.13 1018.83 1019.35 1019.73 1020.03 1020.15 1020.36 1020.91 1021.54 1022.11 1022.69 1023.19 1023.37 1023.40 1023.39 1023.48 1023.42 1023.43 1023.41 1023.40 1023.04 1022.58 1022.57 1022.24 1021.89 1021.46 1021.03
1025.73 1025.81 1026.03 1026.16 1025.96 1025.92 1025.98 1026.35 1026.79 1027.34 1027.82 1028.22 1027.20 1025.99 1020.37 1018.30 1017.67 1018.14 1019.04 1019.95 1020.52 1020.87 1021.26 1021.70 1022.08 1022.48 1023.17 1023.27 1023.40 1023.52 1023.51 1023.71 1023.79 1023.63 1023.51 1023.42 1023.25 1023.17 1022.84 1022.40 1022.14 1021.80 1021.40 1021.03
1026.31 1026.45 1026.58 1026.78 1026.60 1026.27 1026.45 1027.04 1027.84 1028.34 1028.76 1029.21 1028.34 1026.52 1020.17 1018.15 1017.87 1018.14 1019.22 1020.24 1020.93 1021.60 1022.03 1022.46 1022.91 1023.41 1023.74 1023.91 1024.05 1023.98 1024.07 1024.21 1024.02 1023.83 1023.69 1023.53 1023.55 1023.46 1023.18 1022.88 1022.58 1022.12 1021.59 1021.34
1028.34 1027.37 1027.49 1027.59 1027.78 1027.78 1027.75 1028.19 1029.08 1030.13 1030.59 1029.81 1028.30 1025.10 1019.51 1018.67 1018.80 1019.17 1019.77 1020.68 1021.53 1022.12 1022.62 1023.12 1023.50 1023.63 1023.89 1024.11 1024.24 1024.26 1024.17 1024.19 1024.22 1024.10 1024.16 1023.92 1023.73 1023.53 1023.27 1022.99 1022.69 1022.27 1021.97 1021.51
1029.16 1028.23 1028.29 1028.35 1028.40 1028.64 1028.23 1028.61 1029.33 1030.07 1031.80 1031.04 1027.16 1023.27 1019.82 1019.34 1019.53 1020.01 1020.66 1021.27 1021.75 1022.40 1023.03 1023.30 1023.41 1023.73 1023.99 1024.23 1024.37 1024.47 1024.44 1024.39 1024.26 1024.29 1024.15 1024.03 1023.76 1023.58 1023.40 1023.10 1022.77 1022.48 1022.17 1021.48
1029.79 1029.50 1028.68 1028.60 1028.65 1028.73 1028.80 1029.46 1029.76 1030.51 1031.40 1030.85 1027.18 1024.53 1021.23 1020.06 1020.09 1020.47 1021.03 1021.38 1021.75 1022.35 1022.90 1023.45 1023.73 1023.96 1024.22 1024.43 1024.56 1024.69 1024.74 1024.65 1024.69 1024.58 1024.52 1024.12 1024.07 1023.75 1023.48 1023.14 1022.71 1022.48 1022.06 1021.65
1029.39 1029.97 1028.75 1028.40 1028.14 1028.01 1028.92 1029.40 1029.93 1030.38 1030.66 1030.58 1028.20 1023.37 1019.40 1019.51 1019.91 1020.64 1021.20 1021.24 1021.60 1022.67 1023.39 1023.76 1024.10 1024.39 1024.52 1024.63 1024.84 1024.91 1024.91 1024.90 1024.90 1024.84 1024.44 1024.21 1023.82 1023.75 1023.58 1023.31 1022.94 1022.50 1021.97 1021.46
1029.22 1029.52 1029.21 1027.90 1027.77 1028.08 1028.42 1028.61 1029.20 1030.46 1030.38 1029.90 1028.73 1022.57 1019.15 1019.90 1020.47 1020.56 1021.06 1021.54 1022.39 1023.24 1023.81 1024.17 1024.32 1024.53 1024.75 1024.95 1025.03 1025.27 1025.29 1025.10 1024.81 1024.82 1024.75 1024.37 1024.06 1023.73 1023.29 1023.08 1022.84 1022.40 1021.86 1021.35
1030.03 1030.48 1030.27 1028.17 1028.43 1028.33 1028.37 1028.32 1028.71 1029.48 1029.54 1028.51 1027.85 1021.82 1019.47 1019.93 1020.37 1020.55 1021.26 1021.81 1022.67 1023.37 1024.02 1024.49 1024.50 1024.73 1025.01 1025.12 1025.34 1025.53 1025.36 1025.33 1025.16 1024.90 1024.66 1024.45 1024.19 1023.96 1023.63 1023.05 1022.56 1022.14 1021.60 1021.10
1030.21 1030.92 1031.06 1030.33 1028.81 1028.74 1028.58 1028.20 1028.48 1029.00 1029.08 1027.11 1024.07 1019.49 1018.75 1018.59 1019.90 1020.20 1020.71 1021.10 1021.93 1022.92 1023.62 1024.06 1024.55 1025.01 1025.28 1025.40 1025.79 1025.60 1025.57 1025.46 1025.34 1025.07 1024.92 1024.62 1024.26 1023.80 1023.53 1023.12 1022.53 1021.93 1021.39 1020.79
1030.93 1031.75 1031.54 1030.18 1028.86 1028.49 1027.35 1026.53 1027.49 1027.65 1026.05 1025.63 1019.43 1020.33 1017.07 1016.86 1017.99 1018.45 1019.25 1020.43 1021.65 1022.71 1023.52 1024.10 1024.55 1024.93 1025.32 1025.68 1025.86 1025.97 1025.86 1025.77 1025.57 1025.26 1024.92 1024.77 1024.56 1024.14 1023.56 1022.97 1022.46 1021.95 1021.25 1020.54
1031.98 1032.58 1032.86 1030.65 1028.82 1028.22 1026.70 1024.72 1025.49 1025.33 1024.71 1023.44 1020.75 1018.52 1016.18 1015.88 1016.91 1017.60 1018.32 1020.12 1021.44 1022.01 1022.93 1023.93 1024.53 1024.99 1025.35 1025.71 1025.94 1026.08 1026.05 1025.94 1025.76 1025.54 1025.17 1024.83 1024.32 1023.95 1023.35 1022.74 1022.16 1021.63 1021.01 1020.30
1032.83 1033.51 1033.76 1031.50 1029.23 1027.50 1024.41 1020.71 1021.65 1022.00 1021.43 1020.41 1019.20 1015.32 1015.36 1015.94 1016.64 1017.22 1018.08 1019.23 1020.34 1021.32 1022.62 1023.54 1024.10 1024.73 1025.35 1025.79 1026.10 1026.33 1026.19 1025.98 1025.88 1025.58 1025.22 1024.93 1024.56 1023.92 1023.34 1022.69 1022.09 1021.36 1020.71 1020.09
1032.88 1033.70 1034.03 1031.90 1029.38 1025.99 1019.35 1018.43 1018.15 1018.73 1018.02 1017.80 1016.18 1014.96 1014.68 1015.45 1016.08 1016.82 1017.66 1018.94 1020.07 1021.35 1022.38 1023.37 1024.16 1024.78 1025.32 1025.70 1026.18 1026.40 1026.47 1026.43 1026.09 1025.67 1025.35 1024.88 1024.46 1023.87 1023.30 1022.67 1022.04 1021.24 1020.46 1019.80
1032.25 1032.78 1032.98 1031.43 1028.75 1022.99 1018.06 1017.16 1017.29 1017.53 1015.29 1014.59 1014.51 1014.15 1014.49 1015.65 1016.60 1017.23 1018.24 1019.13 1020.11 1021.22 1022.28 1023.14 1023.91 1024.74 1025.50 1026.01 1026.10 1026.28 1026.41 1026.36 1026.12 1025.74 1025.44 1024.78 1024.27 1023.57 1022.98 1022.53 1021.94 1021.00 1020.17 1019.32
1032.09 1032.20 1031.95 1031.02 1028.53 1023.75 1017.38 1016.84 1016.53 1016.68 1014.02 1011.91 1012.89 1013.34 1014.50 1015.88 1016.87 1017.35 1018.53 1019.61 1020.72 1021.78 1022.50 1023.22 1024.16 1025.08 1025.52 1025.66 1025.89 1026.17 1026.29 1026.08 1025.64 1025.24 1024.88 1024.35 1023.94 1023.42 1022.73 1022.12 1021.46 1020.59 1019.93 1019.07
1030.74 1031.00 1030.16 1028.17 1026.00 1020.99 1016.07 1016.29 1016.67 1015.99 1011.79 1011.26 1011.94 1013.09 1014.57 1015.75 1016.05 1017.25 1018.83 1020.19 1021.26 1022.01 1022.78 1023.58 1024.56 1025.15 1025.73 1025.99 1025.92 1025.95 1025.93 1025.92 1025.67 1025.21 1024.83 1024.23 1023.68 1023.08 1022.36 1021.58 1020.99 1020.29 1019.56 1018.74
1025.48 1026.60 1026.81 1025.63 1023.44 1018.27 1014.45 1016.03 1015.04 1011.16 1010.85 1011.45 1012.59 1013.24 1014.26 1015.10 1016.50 1017.78 1019.16 1020.44 1021.41 1022.08 1022.79 1023.60 1024.19 1024.85 1025.35 1025.63 1025.90 1026.12 1025.91 1025.79 1025.60 1025.28 1024.76 1024.22 1023.66 1022.82 1021.91 1021.36 1020.68 1019.95 1019.12 1018.31
1022.32 1020.31 1020.15 1019.63 1014.97 1011.48 1011.83 1010.89 1010.07 1010.50 1011.15 1011.66 1012.54 1013.15 1014.02 1015.24 1016.52 1017.97 1019.38 1020.54 1021.48 1022.10 1022.96 1023.83 1024.47 1025.16 1025.45 1025.64 1025.88 1026.01 1026.16 1025.92 1025.81 1025.31 1024.56 1023.93 1023.45 1022.75 1021.82 1021.11 1020.39 1019.54 1018.85 1017.94
1018.90 1017.84 1017.11 1015.85 1010.67 1009.29 1009.76 1009.43 1009.34 1009.95 1010.64 1011.23 1012.18 1012.92 1014.05 1014.99 1016.32 1018.03 1019.40 1020.57 1021.43 1022.26 1023.21 1024.05 1024.93 1025.30 1025.86 1026.06 1026.20 1026.37 1026.28 1026.11 1025.85 1025.23 1024.64 1023.78 1023.17 1022.64 1021.79 1020.98 1020.23 1019.42 1018.51 1017.48
1015.72 1015.75 1014.58 1012.07 1009.24 1007.84 1008.49 1008.08 1008.81 1008.99 1010.11 1011.35 1012.28 1012.98 1013.77 1014.97 1016.64 1017.79 1019.21 1020.45 1021.26 1022.26 1023.42 1024.34 1025.17 1025.76 1026.09 1026.12 1026.26 1026.06 1025.91 1026.07 1025.75 1024.98 1024.38 1023.76 1023.09 1022.52 1021.86 1020.76 1020.02 1019.04 1018.14 1017.01
1013.32 1012.11 1012.08 1008.19 1006.54 1007.23 1006.59 1007.55 1008.32 1009.67 1010.51 1011.11 1012.22 1013.38 1014.18 1015.11 1016.45 1017.69 1018.96 1020.00 1021.05 1022.39 1023.83 1025.00 1025.38 1025.54 1025.88 1026.16 1026.36 1026.38 1026.25 1026.22 1025.95 1025.19 1024.21 1023.62 1023.03 1022.42 1021.77 1021.05 1019.39 1018.84 1017.82 1016.75
Wind_Speed
7 11 3 2 1 2 3 3 5 6 1 8 4 14 19 13 4 7 8 8 7 8 6 8 6 7 6 5 5 6 6 3 2 2 1 2 2 3 3 3 4 7 5 9
9 4 3 3 2 2 4 3 5 8 2 3 8 20 8 3 2 2 4 6 6 3 4 6 7 7 7 5 5 5 5 3 2 1 1 1 2 2 3 3 6 6 8 9
7 1 2 1 4 4 1 0 3 6 10 2 9 8 4 1 1 3 5 2 5 4 7 6 8 7 5 4 3 5 4 4 5 5 3 3 2 2 2 6 6 7 10 9
5 3 2 1 4 3 4 1 2 5 6 3 6 7 6 2 1 4 6 6 5 4 4 5 6 4 4 2 5 5 5 6 6 7 5 5 3 5 4 6 6 7 7 9
1 6 6 6 1 1 4 2 4 1 3 3 5 4 10 2 3 2 2 3 5 5 4 3 4 4 5 6 6 6 7 7 6 7 6 4 5 3 4 6 9 8 9 9
3 0 2 2 3 3 3 1 2 3 3 4 2 4 9 4 3 3 3 1 4 5 6 8 7 7 7 6 6 6 6 6 6 5 5 6 6 8 8 8 8 7 8 7
6 2 2 3 3 1 5 6 6 8 7 6 1 2 14 5 4 4 8 5 3 5 6 6 7 6 6 6 6 5 6 5 5 6 6 7 8 8 9 9 8 11 8 8
4 8 4 6 4 1 4 4 6 5 3 7 1 8 9 1 2 2 4 6 4 4 4 5 5 5 5 5 5 5 5 5 5 5 7 7 9 6 6 8 8 7 8 8
5 5 2 4 3 3 3 4 2 6 1 5 5 10 10 2 3 4 6 6 6 4 3 4 4 5 5 5 4 4 4 4 6 6 7 7 7 9 8 10 8 7 9 10
1 5 0 2 0 2 3 1 5 4 5 7 8 8 9 7 9 7 8 10 8 6 5 4 3 5 4 4 3 4 4 4 5 6 7 7 8 8 8 9 9 11 10 11
4 4 5 1 4 6 3 2 3 3 4 5 4 11 9 9 7 12 10 10 8 5 4 4 4 3 3 3 4 4 5 6 7 7 9 9 8 9 9 10 9 10 11 11
3 4 5 9 1 2 1 4 4 6 7 4 2 16 3 5 5 7 10 8 3 3 4 4 4 3 1 2 3 4 5 5 6 6 8 9 9 10 10 9 11 10 11 11
1 3 6 10 2 2 3 5 4 3 3 8 4 13 3 4 5 8 9 6 4 4 3 4 4 2 1 2 3 3 4 5 6 6 7 9 9 9 10 10 11 11 11 11
2 1 8 8 10 2 5 5 5 5 3 4 16 27 25 20 8 9 9 9 6 7 7 5 3 3 2 2 4 4 5 4 6 7 7 9 9 10 10 11 12 11 11 11
4 5 3 8 14 5 15 20 9 14 13 10 28 12 26 22 8 10 4 3 6 6 6 5 4 4 3 3 4 5 4 5 5 6 6 8 9 10 11 12 12 11 10 10
2 3 2 8 7 5 11 19 13 20 19 15 27 34 32 30 13 6 8 5 6 7 7 5 4 4 4 4 5 5 5 5 3 5 6 6 8 10 11 11 11 11 11 11
4 4 3 9 3 9 12 14 13 8 7 7 10 24 2 4 5 5 4 6 7 6 7 6 6 4 3 4 3 4 5 4 5 6 6 6 8 10 11 10 11 11 11 11
6 5 2 7 6 1 10 6 8 14 16 18 18 21 21 10 2 2 3 5 6 7 7 5 4 3 3 1 3 4 4 4 4 6 6 7 7 9 10 10 10 11 9 11
1 4 3 3 4 13 12 5 7 7 12 14 22 21 16 2 1 4 3 3 6 7 5 5 4 2 1 2 3 3 5 4 5 6 7 7 6 10 10 10 10 11 10 11
1 2 0 2 4 9 5 2 3 4 15 11 11 14 5 5 4 7 8 8 8 7 7 6 5 3 3 2 4 5 4 4 6 8 9 10 9 9 10 11 11 10 10 11
5 3 8 9 7 15 16 9 4 1 19 5 6 5 7 6 4 6 9 8 8 7 8 6 5 3 2 3 5 5 6 6 8 10 11 11 10 11 10 10 10 10 10 10
13 11 8 3 6 17 13 3 11 14 2 2 3 5 6 4 7 10 9 10 11 9 8 6 4 2 1 3 4 5 5 7 8 9 10 11 11 10 9 11 9 10 9 10
4 13 9 17 17 8 15 14 12 3 5 4 4 6 8 7 8 12 10 10 10 9 8 5 4 2 1 2 2 4 7 7 9 9 9 8 10 10 11 10 10 8 9 8
7 5 7 4 20 33 23 18 19 17 15 4 5 6 8 7 12 11 11 10 9 7 6 4 4 3 0 1 3 2 5 6 6 8 9 8 9 10 10 8 7 8 8 9
9 10 13 25 32 31 24 25 18 12 5 5 4 6 8 11 12 13 11 11 9 8 5 4 4 3 2 2 3 3 3 4 7 7 7 8 7 8 9 10 8 8 8 11
9 19 13 24 28 19 19 1 4 7 6 9 9 6 5 9 14 11 11 10 10 9 6 4 4 4 2 1 3 3 3 4 6 7 6 6 7 7 7 8 11 14 17 20
Wind_Direction
14 67 80 262 17 214 225 243 252 260 43 328 239 285 295 314 260 277 269 272 249 222 197 161 171 161 156 170 164 160 147 130 94 40 342 316 316 304 331 308 343 331 334 341
29 73 242 284 328 266 222 267 296 287 315 6 336 301 282 304 43 33 10 342 240 144 147 147 171 186 189 179 190 149 132 115 68 79 352 335 312 314 307 351 329 332 338 334
107 182 309 247 40 24 38 276 337 261 327 232 318 293 316 318 92 65 39 30 27 181 177 182 194 203 194 198 170 128 112 70 47 29 3 356 322 341 330 337 335 340 334 332
102 332 324 18 78 30 335 142 258 293 19 280 19 277 306 324 105 48 34 33 21 31 178 204 211 207 193 167 96 94 67 51 46 30 34 29 5 341 329 331 326 326 330 333
323 13 10 43 342 139 245 299 303 52 86 15 335 77 269 344 257 177 60 59 28 30 49 78 62 70 72 78 58 49 65 51 38 36 33 22 2 324 327 333 332 335 331 323
73 10 59 282 287 223 320 115 53 61 98 23 280 87 283 245 235 204 174 77 31 33 47 61 66 64 58 59 71 58 59 45 38 35 27 21 358 344 339 338 333 330 325 327
347 9 340 20 322 198 29 43 345 356 9 232 281 23 246 252 260 229 182 167 81 57 55 61 69 72 71 61 46 56 46 38 29 27 20 4 4 347 342 339 334 329 329 332
65 330 12 352 52 300 22 111 142 265 277 281 17 236 258 210 24 67 137 150 134 83 77 85 84 105 95 76 57 47 38 29 25 12 10 357 356 351 337 332 326 327 327 327
21 285 66 34 357 57 319 46 149 96 54 34 271 286 289 183 252 187 178 194 209 187 145 138 141 110 111 82 60 47 23 25 19 16 357 347 350 342 332 329 326 330 322 321
135 329 326 283 312 53 94 140 28 12 339 300 285 277 246 258 234 219 209 223 228 198 182 170 136 133 103 77 50 41 22 12 6 3 348 343 336 335 330 327 328 326 319 323
135 113 279 87 185 183 48 14 43 133 147 204 288 266 219 230 213 202 218 224 225 214 205 184 148 136 110 78 42 24 14 1 354 349 334 336 334 333 327 325 325 316 319 317
211 160 252 237 106 356 333 211 162 130 268 237 161 266 245 241 244 194 217 237 230 204 209 193 191 163 87 32 14 13 355 348 342 332 331 332 330 326 322 318 317 316 313 314
64 336 348 340 38 61 208 215 160 96 59 224 150 264 320 302 274 236 240 255 233 189 218 220 218 222 303 335 353 343 335 328 325 324 324 324 325 322 316 316 312 314 311 311
87 197 181 210 228 135 251 223 201 145 156 210 233 271 275 277 251 254 252 240 214 198 206 208 222 245 281 334 318 306 309 315 318 319 325 323 323 321 317 314 314 311 310 308
124 220 230 252 267 219 260 253 194 204 218 209 270 249 273 275 268 271 245 214 184 204 208 210 212 241 277 296 295 305 295 296 315 321 316 320 322 320 317 315 313 309 306 306
32 283 45 286 276 274 272 259 225 235 251 252 261 277 266 273 284 250 223 191 210 196 199 191 217 240 264 280 290 305 304 314 327 313 315 313 315 316 314 313 312 309 307 305
148 140 70 264 345 324 285 250 186 205 214 178 206 244 343 276 227 253 237 199 204 186 174 183 215 228 252 271 281 296 307 310 327 326 312 310 309 312 313 310 308 307 309 308
139 107 136 269 350 311 238 231 200 204 249 209 261 269 270 280 190 193 149 186 171 152 155 191 204 225 263 272 286 295 304 326 326 313 305 297 298 305 308 310 306 306 308 305
34 121 279 251 206 296 279 209 183 181 271 229 233 259 269 110 317 229 144 140 137 145 163 179 164 181 202 249 259 304 323 327 315 307 300 300 302 308 314 310 307 302 303 306
62 61 105 18 256 278 225 174 164 154 282 224 195 239 184 117 277 300 147 132 131 151 158 144 136 99 55 8 351 326 310 308 320 329 320 317 313 306 307 304 306 306 311 305
158 171 219 242 259 275 264 159 181 102 294 198 179 160 149 198 223 129 137 132 145 149 141 117 96 98 43 3 343 333 329 332 331 325 320 319 319 311 304 307 316 311 310 307
169 166 203 191 220 277 143 106 191 264 279 152 161 184 195 181 132 145 145 147 160 156 138 126 139 117 56 18 344 334 327 333 326 324 319 319 316 315 318 321 314 319 314 314
226 204 192 195 213 234 189 241 252 224 270 221 197 190 208 157 167 158 158 159 175 156 142 133 141 141 87 26 358 333 332 333 323 318 312 312 313 319 322 323 321 322 321 314
247 193 231 311 237 255 264 257 250 263 255 212 190 174 176 184 154 156 154 163 164 144 146 143 142 169 312 307 353 280 324 327 307 305 314 319 322 322 318 318 319 317 320 311
190 150 222 250 265 279 266 261 273 278 155 146 150 174 177 141 158 156 161 171 162 147 142 148 169 173 240 293 308 300 331 312 315 314 314 320 324 317 319 314 320 322 313 312
185 224 221 249 257 264 289 348 144 151 185 187 156 148 141 152 158 161 165 167 151 148 141 156 181 172 215 289 312 321 323 323 318 322 330 327 325 320 318 320 318 325 328 335